Location: Conjunto Santa Maria
(19.9513°S, 43.9599°W)
Time: 13:22:05
(UTC+00:00)

IRS-1C Rocket - Pass Details

Date: 21 January 2021
Orbit: 801 x 805 km, 99.0° (Epoch: 03 March)

Event Time Altitude Azimuth Distance (km) Brightness Sun altitude
Rises 22:05:47 0° 168° (SSE) 3,334 7.5 -6.2°
Reaches altitude 10° 22:08:08 10° 168° (SSE) 2,397 6.7 -6.7°
Maximum altitude 22:13:26 87° 254° (WSW) 811 4.2 -7.9°
Drops below altitude 10° 22:18:41 10° 345° (NNW) 2,370 6.4 -9.0°
Sets 22:21:00 0° 346° (NNW) 3,293 7.2 -9.5°
